| time (UTC) | temp C | wind direction | speed KPH | gust KPH | rain 1hr cm | rain 24hr cm | rain mn cm | humidity % | barometer mb |
| 20260903160112 | 25 | 335 | 3.2 | 9.7 | 0.00 | 0.00 | 0.00 | 42 | 1017.9 |
| 20260903155610 | 26 | 322 | 9.7 | 9.7 | 0.00 | 0.00 | 0.00 | 41 | 1018.1 |
| 20260903155110 | 26 | 313 | 6.4 | 9.7 | 0.00 | 0.00 | 0.00 | 41 | 1017.8 |
| 20260903154610 | 26 | 248 | 6.4 | 9.7 | 0.00 | 0.00 | 0.00 | 41 | 1017.9 |
| 20260903154122 | 26 | 260 | 4.8 | 9.7 | 0.00 | 0.00 | 0.00 | 41 | 1017.9 |
| 20260903153610 | 26 | 263 | 6.4 | 9.7 | 0.00 | 0.00 | 0.00 | 40 | 1017.6 |
| 20260903153110 | 26 | 274 | 4.8 | 11.3 | 0.00 | 0.00 | 0.00 | 40 | 1017.5 |
| 20260903152110 | 26 | 245 | 4.8 | 11.3 | 0.00 | 0.00 | 0.00 | 39 | 1017.7 |
| 20260903151610 | 27 | 327 | 4.8 | 9.7 | 0.00 | 0.00 | 0.00 | 39 | 1017.8 |
| 20260903150610 | 27 | 236 | 3.2 | 14.5 | 0.00 | 0.00 | 0.00 | 38 | 1017.8 |
| 20260903150111 | 27 | 291 | 8.0 | 14.5 | 0.00 | 0.00 | 0.00 | 37 | 1017.8 |
| 20260903145609 | 27 | 268 | 6.4 | 12.9 | 0.00 | 0.00 | 0.00 | 38 | 1017.9 |
| 20260903144610 | 27 | 271 | 6.4 | 14.5 | 0.00 | 0.00 | 0.00 | 38 | 1017.9 |
| 20260903144110 | 28 | 218 | 8.0 | 11.3 | 0.00 | 0.00 | 0.00 | 37 | 1017.7 |
| 20260903143610 | 28 | 348 | 3.2 | 11.3 | 0.00 | 0.00 | 0.00 | 37 | 1017.6 |
| 20260903143110 | 28 | 236 | 8.0 | 11.3 | 0.00 | 0.00 | 0.00 | 36 | 1017.5 |
| 20260903142110 | 28 | 287 | 4.8 | 16.1 | 0.00 | 0.00 | 0.00 | 36 | 1018.1 |
| 20260903141610 | 28 | 254 | 3.2 | 14.5 | 0.00 | 0.00 | 0.00 | 36 | 1018.1 |
| 20260903140609 | 27 | 293 | 4.8 | 17.7 | 0.00 | 0.00 | 0.00 | 38 | 1017.7 |
| 20260903140110 | 27 | 264 | 9.7 | 12.9 | 0.00 | 0.00 | 0.00 | 37 | 1017.8 |
| 20260903135610 | 27 | 299 | 6.4 | 14.5 | 0.00 | 0.00 | 0.00 | 38 | 1017.9 |
| 20260903135110 | 27 | 255 | 4.8 | 14.5 | 0.00 | 0.00 | 0.00 | 37 | 1017.9 |
| 20260903134610 | 27 | 330 | 8.0 | 12.9 | 0.00 | 0.00 | 0.00 | 37 | 1018.1 |
| 20260903132610 | 28 | 44 | 3.2 | 14.5 | 0.00 | 0.00 | 0.00 | 36 | 1017.9 |
| 20260903132110 | 28 | 281 | 8.0 | 11.3 | 0.00 | 0.00 | 0.00 | 35 | 1017.9 |
| 20260903131112 | 28 | 260 | 6.4 | 11.3 | 0.00 | 0.00 | 0.00 | 36 | 1017.9 |
| 20260903130610 | 28 | 172 | 3.2 | 14.5 | 0.00 | 0.00 | 0.00 | 37 | 1018.1 |
| 20260903125610 | 27 | 339 | 6.4 | 12.9 | 0.00 | 0.00 | 0.00 | 38 | 1018.3 |
| 20260903124610 | 28 | 345 | 8.0 | 11.3 | 0.00 | 0.00 | 0.00 | 37 | 1018.2 |
| 20260903124109 | 28 | 266 | 4.8 | 11.3 | 0.00 | 0.00 | 0.00 | 35 | 1018.1 |
| 20260903123609 | 29 | 259 | 3.2 | 19.3 | 0.00 | 0.00 | 0.00 | 36 | 1018.2 |
| 20260903123110 | 27 | 218 | 3.2 | 19.3 | 0.00 | 0.00 | 0.00 | 37 | 1018.4 |
| 20260903122610 | 27 | 321 | 3.2 | 11.3 | 0.00 | 0.00 | 0.00 | 38 | 1018.5 |
| 20260903122110 | 27 | 235 | 3.2 | 11.3 | 0.00 | 0.00 | 0.00 | 38 | 1018.8 |
| 20260903121610 | 27 | 238 | 3.2 | 11.3 | 0.00 | 0.00 | 0.00 | 38 | 1018.5 |
| 20260903121110 | 27 | 244 | 3.2 | 16.1 | 0.00 | 0.00 | 0.00 | 37 | 1018.5 |
| 20260903120610 | 26 | 228 | 4.8 | 22.5 | 0.00 | 0.00 | 0.00 | 40 | 1018.6 |
| 20260903120115 | 27 | 3 | 6.4 | 22.5 | 0.00 | 0.00 | 0.00 | 39 | 1018.9 |
| 20260903115110 | 27 | 353 | 0.0 | 11.3 | 0.00 | 0.00 | 0.00 | 39 | 1018.8 |
| 20260903114610 | 27 | 254 | 3.2 | 11.3 | 0.00 | 0.00 | 0.00 | 39 | 1018.7 |
| 20260903114109 | 27 | 268 | 0.0 | 12.9 | 0.00 | 0.00 | 0.00 | 39 | 1018.8 |
| 20260903113610 | 26 | 289 | 3.2 | 16.1 | 0.00 | 0.00 | 0.00 | 39 | 1018.9 |
| 20260903113110 | 26 | 254 | 3.2 | 16.1 | 0.00 | 0.00 | 0.00 | 39 | 1019.0 |
| 20260903111110 | 27 | 261 | 3.2 | 14.5 | 0.00 | 0.00 | 0.00 | 38 | 1019.0 |
| 20260903110610 | 28 | 288 | 3.2 | 17.7 | 0.00 | 0.00 | 0.00 | 37 | 1019.3 |
| 20260903110111 | 28 | 228 | 8.0 | 17.7 | 0.00 | 0.00 | 0.00 | 36 | 1019.0 |
| 20260903105609 | 27 | 278 | 3.2 | 9.7 | 0.00 | 0.00 | 0.00 | 38 | 1019.2 |
| 20260903105110 | 27 | 246 | 0.0 | 11.3 | 0.00 | 0.00 | 0.00 | 38 | 1019.3 |
| 20260903104609 | 27 | 247 | 4.8 | 16.1 | 0.00 | 0.00 | 0.00 | 38 | 1019.3 |
| 20260903104110 | 27 | 48 | 1.6 | 17.7 | 0.00 | 0.00 | 0.00 | 39 | 1019.1 |
| 20260903103610 | 27 | 352 | 8.0 | 17.7 | 0.00 | 0.00 | 0.00 | 38 | 1019.2 |
| 20260903103110 | 27 | 288 | 4.8 | 16.1 | 0.00 | 0.00 | 0.00 | 37 | 1019.2 |
| 20260903102610 | 27 | 251 | 4.8 | 16.1 | 0.00 | 0.00 | 0.00 | 37 | 1019.1 |
| 20260903102110 | 27 | 266 | 3.2 | 17.7 | 0.00 | 0.00 | 0.00 | 37 | 1019.3 |
| 20260903101610 | 27 | 4 | 16.1 | 17.7 | 0.00 | 0.00 | 0.00 | 38 | 1019.6 |
| 20260903100610 | 27 | 261 | 4.8 | 24.1 | 0.00 | 0.00 | 0.00 | 37 | 1019.7 |
| 20260903100110 | 28 | 285 | 4.8 | 24.1 | 0.00 | 0.00 | 0.00 | 37 | 1019.6 |
| 20260903095610 | 29 | 261 | 6.4 | 20.9 | 0.00 | 0.00 | 0.00 | 35 | 1019.7 |
| 20260903095110 | 28 | 4 | 9.7 | 20.9 | 0.00 | 0.00 | 0.00 | 37 | 1019.9 |
| 20260903094109 | 28 | 307 | 9.7 | 14.5 | 0.00 | 0.00 | 0.00 | 36 | 1019.7 |
| 20260903093610 | 27 | 288 | 3.2 | 14.5 | 0.00 | 0.00 | 0.00 | 40 | 1020.1 |
| 20260903093110 | 28 | 255 | 3.2 | 9.7 | 0.00 | 0.00 | 0.00 | 39 | 1019.9 |
| 20260903092610 | 28 | 334 | 0.0 | 8.0 | 0.00 | 0.00 | 0.00 | 39 | 1019.9 |
| 20260903092112 | 27 | 129 | 4.8 | 12.9 | 0.00 | 0.00 | 0.00 | 42 | 1020.1 |
| 20260903091610 | 27 | 332 | 4.8 | 22.5 | 0.00 | 0.00 | 0.00 | 43 | 1020.1 |
| 20260903091109 | 26 | 26 | 0.0 | 22.5 | 0.00 | 0.00 | 0.00 | 43 | 1020.2 |
| 20260903090610 | 26 | 31 | 4.8 | 12.9 | 0.00 | 0.00 | 0.00 | 43 | 1020.0 |
| 20260903090109 | 26 | 21 | 6.4 | 12.9 | 0.00 | 0.00 | 0.00 | 44 | 1020.2 |
| 20260903085610 | 26 | 25 | 9.7 | 12.9 | 0.00 | 0.00 | 0.00 | 44 | 1020.4 |
| 20260903085110 | 26 | 312 | 3.2 | 9.7 | 0.00 | 0.00 | 0.00 | 44 | 1020.2 |
| 20260903084110 | 25 | 337 | 3.2 | 16.1 | 0.00 | 0.00 | 0.00 | 45 | 1020.4 |
| 20260903083611 | 26 | 235 | 3.2 | 11.3 | 0.00 | 0.00 | 0.00 | 45 | 1020.5 |
| 20260903083110 | 26 | 208 | 4.8 | 14.5 | 0.00 | 0.00 | 0.00 | 44 | 1020.4 |
| 20260903082610 | 26 | 298 | 3.2 | 11.3 | 0.00 | 0.00 | 0.00 | 44 | 1020.3 |
| 20260903082123 | 26 | 290 | 4.8 | 11.3 | 0.00 | 0.00 | 0.00 | 46 | 1020.4 |
| 20260903081610 | 26 | 324 | 4.8 | 9.7 | 0.00 | 0.00 | 0.00 | 45 | 1020.4 |
| 20260903081110 | 25 | 277 | 4.8 | 9.7 | 0.00 | 0.00 | 0.00 | 47 | 1020.4 |
| 20260903080610 | 25 | 214 | 6.4 | 11.3 | 0.00 | 0.00 | 0.00 | 46 | 1020.4 |
| 20260903080123 | 25 | 311 | 3.2 | 11.3 | 0.00 | 0.00 | 0.00 | 46 | 1020.3 |
| 20260903075610 | 26 | 273 | 3.2 | 8.0 | 0.00 | 0.00 | 0.00 | 45 | 1020.4 |
| 20260903075109 | 25 | 351 | 6.4 | 11.3 | 0.00 | 0.00 | 0.00 | 47 | 1020.4 |
| 20260903074109 | 24 | 281 | 3.2 | 11.3 | 0.00 | 0.00 | 0.00 | 49 | 1020.3 |
| 20260903073610 | 24 | 339 | 8.0 | 14.5 | 0.00 | 0.00 | 0.00 | 49 | 1020.3 |
| 20260903072610 | 24 | 223 | 0.0 | 11.3 | 0.00 | 0.00 | 0.00 | 48 | 1020.4 |
| 20260903071610 | 23 | 247 | 3.2 | 14.5 | 0.00 | 0.00 | 0.00 | 49 | 1019.9 |
| 20260903071110 | 23 | 216 | 1.6 | 9.7 | 0.00 | 0.00 | 0.00 | 50 | 1020.1 |
| 20260903070610 | 23 | 317 | 3.2 | 9.7 | 0.00 | 0.00 | 0.00 | 51 | 1020.4 |
| 20260903070117 | 22 | 230 | 1.6 | 6.4 | 0.00 | 0.00 | 0.00 | 55 | 1020.3 |
| 20260903065610 | 21 | 20 | 3.2 | 4.8 | 0.00 | 0.00 | 0.00 | 58 | 1020.3 |
| 20260903064609 | 21 | 137 | 3.2 | 4.8 | 0.00 | 0.00 | 0.00 | 58 | 1020.1 |
| 20260903064109 | 21 | 217 | 0.0 | 3.2 | 0.00 | 0.00 | 0.00 | 60 | 1020.4 |
| 20260903063623 | 20 | 103 | 0.0 | 3.2 | 0.00 | 0.00 | 0.00 | 64 | 1020.2 |
| 20260903063110 | 19 | 202 | 0.0 | 3.2 | 0.00 | 0.00 | 0.00 | 66 | 1020.0 |
| 20260903062610 | 19 | 180 | 1.6 | 3.2 | 0.00 | 0.00 | 0.00 | 66 | 1020.2 |
| 20260903062110 | 18 | 151 | 3.2 | 3.2 | 0.00 | 0.00 | 0.00 | 68 | 1020.1 |
| 20260903061110 | 18 | 201 | 1.6 | 1.6 | 0.00 | 0.00 | 0.00 | 69 | 1020.1 |
| 20260903060610 | 18 | 15 | 0.0 | 0.0 | 0.00 | 0.00 | 0.00 | 69 | 1020.1 |
| 20260903060122 | 18 | 15 | 0.0 | 3.2 | 0.00 | 0.00 | 0.00 | 70 | 1020.2 |
| 20260903055610 | 18 | 15 | 0.0 | 3.2 | 0.00 | 0.00 | 0.00 | 70 | 1020.2 |
| 20260903055110 | 17 | 15 | 0.0 | 3.2 | 0.00 | 0.00 | 0.00 | 71 | 1020.0 |
| 20260903054610 | 17 | 18 | 0.0 | 3.2 | 0.00 | 0.00 | 0.00 | 71 | 1020.1 |
| 20260903054110 | 17 | 63 | 1.6 | 4.8 | 0.00 | 0.00 | 0.00 | 71 | 1020.1 |
| 20260903053610 | 17 | 123 | 0.0 | 4.8 | 0.00 | 0.00 | 0.00 | 71 | 1020.2 |
| 20260903053110 | 17 | 89 | 3.2 | 4.8 | 0.00 | 0.00 | 0.00 | 71 | 1020.0 |
| 20260903052610 | 17 | 117 | 0.0 | 3.2 | 0.00 | 0.00 | 0.00 | 71 | 1019.8 |
| 20260903052109 | 17 | 112 | 1.6 | 3.2 | 0.00 | 0.00 | 0.00 | 71 | 1019.9 |
| 20260903051610 | 17 | 62 | 0.0 | 3.2 | 0.00 | 0.00 | 0.00 | 71 | 1020.2 |
| 20260903050610 | 17 | 20 | 0.0 | 3.2 | 0.00 | 0.00 | 0.00 | 71 | 1019.8 |
| 20260903050123 | 17 | 181 | 3.2 | 3.2 | 0.00 | 0.00 | 0.00 | 71 | 1020.0 |
| 20260903045610 | 17 | 89 | 0.0 | 3.2 | 0.00 | 0.00 | 0.00 | 71 | 1020.0 |
| 20260903045110 | 16 | 92 | 0.0 | 3.2 | 0.00 | 0.00 | 0.00 | 72 | 1020.0 |
| 20260903044610 | 16 | 143 | 0.0 | 1.6 | 0.00 | 0.00 | 0.00 | 73 | 1019.6 |
| 20260903044110 | 16 | 194 | 0.0 | 3.2 | 0.00 | 0.00 | 0.00 | 73 | 1019.7 |
| 20260903043610 | 16 | 142 | 0.0 | 3.2 | 0.00 | 0.00 | 0.00 | 73 | 1019.9 |
| 20260903043110 | 16 | 164 | 0.0 | 3.2 | 0.00 | 0.00 | 0.00 | 73 | 1019.8 |
| 20260903042609 | 16 | 248 | 0.0 | 3.2 | 0.00 | 0.00 | 0.00 | 73 | 1019.7 |
| 20260903042109 | 16 | 154 | 0.0 | 3.2 | 0.00 | 0.00 | 0.00 | 73 | 1019.7 |
| 20260903041610 | 16 | 205 | 0.0 | 3.2 | 0.00 | 0.00 | 0.00 | 73 | 1019.8 |
| 20260903041109 | 16 | 136 | 3.2 | 4.8 | 0.00 | 0.00 | 0.00 | 74 | 1019.7 |
| 20260903040610 | 16 | 154 | 0.0 | 4.8 | 0.00 | 0.00 | 0.00 | 74 | 1019.8 |
| 20260903040110 | 15 | 154 | 0.0 | 3.2 | 0.00 | 0.00 | 0.00 | 75 | 1019.7 |
| 20260903035610 | 15 | 25 | 0.0 | 1.6 | 0.00 | 0.00 | 0.00 | 75 | 1019.8 |
| 20260903034610 | 15 | 117 | 0.0 | 1.6 | 0.00 | 0.00 | 0.00 | 74 | 1019.9 |
| 20260903034110 | 15 | 142 | 0.0 | 1.6 | 0.00 | 0.00 | 0.00 | 75 | 1019.7 |
| 20260903033610 | 15 | 62 | 0.0 | 1.6 | 0.00 | 0.00 | 0.00 | 75 | 1019.7 |
| 20260903032558 | 15 | 40 | 1.6 | 1.6 | 0.00 | 0.00 | 0.00 | 76 | 1019.8 |
| 20260903032058 | 15 | 44 | 0.0 | 1.6 | 0.00 | 0.00 | 0.00 | 75 | 1019.5 |
| 20260903031558 | 15 | 44 | 0.0 | 3.2 | 0.00 | 0.00 | 0.00 | 75 | 1019.7 |
| 20260903031058 | 15 | 37 | 1.6 | 3.2 | 0.00 | 0.00 | 0.00 | 74 | 1019.6 |
| 20260903030108 | 15 | 242 | 0.0 | 3.2 | 0.00 | 0.00 | 0.00 | 73 | 1019.5 |
| 20260903025558 | 16 | 54 | 0.0 | 3.2 | 0.00 | 0.00 | 0.00 | 73 | 1019.5 |
| 20260903025059 | 16 | 21 | 3.2 | 3.2 | 0.00 | 0.00 | 0.00 | 73 | 1019.8 |
| 20260903024558 | 16 | 25 | 0.0 | 1.6 | 0.00 | 0.00 | 0.00 | 73 | 1019.6 |
| 20260903024058 | 16 | 135 | 0.0 | 3.2 | 0.00 | 0.00 | 0.00 | 72 | 1019.7 |
| 20260903023558 | 16 | 22 | 1.6 | 3.2 | 0.00 | 0.00 | 0.00 | 72 | 1019.7 |
| 20260903023058 | 16 | 47 | 3.2 | 3.2 | 0.00 | 0.00 | 0.00 | 72 | 1019.6 |
| 20260903022558 | 16 | 57 | 0.0 | 4.8 | 0.00 | 0.00 | 0.00 | 71 | 1019.6 |
| 20260903021558 | 16 | 76 | 1.6 | 3.2 | 0.00 | 0.00 | 0.00 | 71 | 1019.6 |
| 20260903021058 | 16 | 52 | 3.2 | 3.2 | 0.00 | 0.00 | 0.00 | 70 | 1019.9 |
| 20260903020557 | 16 | 31 | 0.0 | 3.2 | 0.00 | 0.00 | 0.00 | 70 | 1019.6 |
| 20260903020111 | 17 | 44 | 0.0 | 3.2 | 0.00 | 0.00 | 0.00 | 70 | 1019.5 |
| 20260903015558 | 17 | 19 | 0.0 | 1.6 | 0.00 | 0.00 | 0.00 | 70 | 1019.6 |
| 20260903015058 | 16 | 51 | 0.0 | 3.2 | 0.00 | 0.00 | 0.00 | 70 | 1019.8 |
| 20260903014558 | 16 | 18 | 1.6 | 3.2 | 0.00 | 0.00 | 0.00 | 70 | 1019.8 |
| 20260903014057 | 16 | 44 | 3.2 | 3.2 | 0.00 | 0.00 | 0.00 | 70 | 1020.0 |
| 20260903013558 | 17 | 40 | 0.0 | 3.2 | 0.00 | 0.00 | 0.00 | 69 | 1019.8 |
| 20260903013058 | 16 | 60 | 0.0 | 3.2 | 0.00 | 0.00 | 0.00 | 69 | 1019.8 |
| 20260903012558 | 16 | 77 | 0.0 | 1.6 | 0.00 | 0.00 | 0.00 | 70 | 1019.9 |
| 20260903012058 | 17 | 44 | 0.0 | 3.2 | 0.00 | 0.00 | 0.00 | 69 | 1019.8 |
| 20260903011558 | 16 | 38 | 0.0 | 3.2 | 0.00 | 0.00 | 0.00 | 70 | 1019.6 |
| 20260903011058 | 16 | 29 | 0.0 | 3.2 | 0.00 | 0.00 | 0.00 | 70 | 1019.8 |
| 20260903010557 | 16 | 89 | 0.0 | 3.2 | 0.00 | 0.00 | 0.00 | 70 | 1019.8 |
| 20260903005558 | 16 | 135 | 0.0 | 3.2 | 0.00 | 0.00 | 0.00 | 70 | 1019.6 |
| 20260903005058 | 16 | 97 | 3.2 | 3.2 | 0.00 | 0.00 | 0.00 | 69 | 1019.8 |
| 20260903004600 | 16 | 149 | 0.0 | 3.2 | 0.00 | 0.00 | 0.00 | 70 | 1019.7 |
| 20260903004058 | 16 | 134 | 0.0 | 3.2 | 0.00 | 0.00 | 0.00 | 70 | 1019.8 |
| 20260903003558 | 16 | 139 | 0.0 | 3.2 | 0.00 | 0.00 | 0.00 | 70 | 1019.6 |
| 20260903003058 | 16 | 102 | 1.6 | 3.2 | 0.00 | 0.00 | 0.00 | 69 | 1019.8 |
| 20260903002558 | 16 | 129 | 0.0 | 3.2 | 0.00 | 0.00 | 0.00 | 69 | 1019.8 |
| 20260903002059 | 16 | 146 | 0.0 | 3.2 | 0.00 | 0.00 | 0.00 | 69 | 1019.7 |
| 20260903001559 | 16 | 166 | 0.0 | 1.6 | 0.00 | 0.00 | 0.00 | 69 | 1019.8 |
| 20260903001058 | 16 | 129 | 0.0 | 1.6 | 0.00 | 0.00 | 0.00 | 69 | 1019.9 |
| 20260903000558 | 16 | 161 | 1.6 | 1.6 | 0.00 | 0.00 | 0.00 | 69 | 1019.8 |
| 20260903000111 | 16 | 135 | 0.0 | 0.0 | 0.00 | 0.00 | 0.00 | 68 | 1019.9 |
| 20260902235558 | 17 | 224 | 0.0 | 0.0 | 0.00 | 0.00 | 0.00 | 68 | 1019.7 |
| 20260902234558 | 17 | 224 | 0.0 | 1.6 | 0.00 | 0.00 | 0.00 | 67 | 1019.7 |
| 20260902234058 | 17 | 89 | 0.0 | 1.6 | 0.00 | 0.00 | 0.00 | 66 | 1019.7 |
| 20260902233558 | 17 | 135 | 0.0 | 3.2 | 0.00 | 0.00 | 0.00 | 65 | 1019.9 |
| 20260902233058 | 17 | 173 | 0.0 | 3.2 | 0.00 | 0.00 | 0.00 | 64 | 1019.5 |
| 20260902232558 | 18 | 139 | 0.0 | 3.2 | 0.00 | 0.00 | 0.00 | 63 | 1019.6 |
| 20260902232058 | 18 | 141 | 3.2 | 3.2 | 0.00 | 0.00 | 0.00 | 62 | 1019.6 |
| 20260902231058 | 18 | 315 | 0.0 | 6.4 | 0.00 | 0.00 | 0.00 | 61 | 1019.7 |
| 20260902230558 | 18 | 18 | 0.0 | 6.4 | 0.00 | 0.00 | 0.00 | 60 | 1019.9 |
| 20260902225558 | 18 | 48 | 0.0 | 4.8 | 0.00 | 0.00 | 0.00 | 60 | 1019.8 |
| 20260902225058 | 18 | 38 | 0.0 | 4.8 | 0.00 | 0.00 | 0.00 | 60 | 1019.7 |
| 20260902224059 | 18 | 34 | 1.6 | 4.8 | 0.00 | 0.00 | 0.00 | 60 | 1019.6 |
| 20260902223557 | 18 | 341 | 0.0 | 3.2 | 0.00 | 0.00 | 0.00 | 60 | 1019.8 |
| 20260902223058 | 18 | 250 | 0.0 | 3.2 | 0.00 | 0.00 | 0.00 | 60 | 1019.8 |
| 20260902222557 | 18 | 312 | 0.0 | 3.2 | 0.00 | 0.00 | 0.00 | 60 | 1019.6 |
| 20260902221558 | 19 | 12 | 0.0 | 3.2 | 0.00 | 0.00 | 0.00 | 59 | 1019.7 |
| 20260902221058 | 19 | 297 | 0.0 | 3.2 | 0.00 | 0.00 | 0.00 | 59 | 1019.5 |
| 20260902220558 | 19 | 13 | 0.0 | 3.2 | 0.00 | 0.00 | 0.00 | 58 | 1019.7 |
| 20260902220111 | 19 | 319 | 0.0 | 3.2 | 0.00 | 0.00 | 0.00 | 58 | 1019.7 |
| 20260902215058 | 20 | 44 | 0.0 | 4.8 | 0.00 | 0.00 | 0.00 | 57 | 1019.6 |
| 20260902214606 | 20 | 79 | 3.2 | 4.8 | 0.00 | 0.00 | 0.00 | 56 | 1019.6 |
| 20260902214100 | 20 | 37 | 0.0 | 3.2 | 0.00 | 0.00 | 0.00 | 55 | 1019.7 |
| 20260902213559 | 20 | 13 | 0.0 | 3.2 | 0.00 | 0.00 | 0.00 | 54 | 1019.7 |
| 20260902213059 | 20 | 20 | 0.0 | 3.2 | 0.00 | 0.00 | 0.00 | 54 | 1019.6 |
| 20260902212611 | 20 | 241 | 1.6 | 3.2 | 0.00 | 0.00 | 0.00 | 54 | 1019.6 |
| 20260902212059 | 20 | 218 | 0.0 | 3.2 | 0.00 | 0.00 | 0.00 | 53 | 1019.4 |
| 20260902211558 | 20 | 6 | 0.0 | 3.2 | 0.00 | 0.00 | 0.00 | 53 | 1019.3 |
| 20260902211058 | 20 | 321 | 0.0 | 3.2 | 0.00 | 0.00 | 0.00 | 53 | 1019.4 |
| 20260902210558 | 20 | 37 | 0.0 | 4.8 | 0.00 | 0.00 | 0.00 | 53 | 1019.1 |
| 20260902210110 | 21 | 293 | 0.0 | 4.8 | 0.00 | 0.00 | 0.00 | 52 | 1019.3 |
| 20260902205558 | 21 | 35 | 1.6 | 3.2 | 0.00 | 0.00 | 0.00 | 52 | 1019.2 |
| 20260902204559 | 21 | 343 | 0.0 | 4.8 | 0.00 | 0.00 | 0.00 | 52 | 1019.0 |
| 20260902203558 | 21 | 348 | 0.0 | 4.8 | 0.00 | 0.00 | 0.00 | 51 | 1018.9 |
| 20260902202559 | 21 | 50 | 0.0 | 3.2 | 0.00 | 0.00 | 0.00 | 51 | 1019.0 |
| 20260902202058 | 21 | 5 | 0.0 | 4.8 | 0.00 | 0.00 | 0.00 | 51 | 1019.1 |
| 20260902201559 | 21 | 13 | 0.0 | 4.8 | 0.00 | 0.00 | 0.00 | 50 | 1018.9 |
| 20260902201058 | 21 | 352 | 3.2 | 4.8 | 0.00 | 0.00 | 0.00 | 50 | 1018.9 |
| 20260902200559 | 21 | 355 | 3.2 | 4.8 | 0.00 | 0.00 | 0.00 | 50 | 1019.1 |
| 20260902200108 | 21 | 18 | 3.2 | 4.8 | 0.00 | 0.00 | 0.00 | 50 | 1018.9 |
| 20260902195559 | 21 | 23 | 1.6 | 4.8 | 0.00 | 0.00 | 0.00 | 49 | 1019.2 |
| 20260902195058 | 21 | 351 | 3.2 | 4.8 | 0.00 | 0.00 | 0.00 | 49 | 1018.9 |
| 20260902194558 | 21 | 11 | 0.0 | 8.0 | 0.00 | 0.00 | 0.00 | 48 | 1019.0 |
| 20260902194058 | 21 | 14 | 3.2 | 8.0 | 0.00 | 0.00 | 0.00 | 48 | 1018.8 |
| 20260902193058 | 22 | 8 | 4.8 | 6.4 | 0.00 | 0.00 | 0.00 | 47 | 1019.1 |
| 20260902192558 | 21 | 358 | 3.2 | 6.4 | 0.00 | 0.00 | 0.00 | 47 | 1018.8 |
| 20260902192058 | 22 | 336 | 1.6 | 4.8 | 0.00 | 0.00 | 0.00 | 47 | 1018.9 |
| 20260902191558 | 22 | 24 | 1.6 | 4.8 | 0.00 | 0.00 | 0.00 | 47 | 1018.9 |
| 20260902191059 | 22 | 4 | 3.2 | 3.2 | 0.00 | 0.00 | 0.00 | 47 | 1018.7 |
| 20260902190559 | 22 | 353 | 0.0 | 4.8 | 0.00 | 0.00 | 0.00 | 46 | 1018.9 |
| 20260902190112 | 22 | 354 | 1.6 | 6.4 | 0.00 | 0.00 | 0.00 | 46 | 1018.7 |
| 20260902185559 | 22 | 325 | 3.2 | 6.4 | 0.00 | 0.00 | 0.00 | 47 | 1018.8 |
| 20260902185059 | 23 | 9 | 1.6 | 4.8 | 0.00 | 0.00 | 0.00 | 46 | 1018.6 |
| 20260902184058 | 23 | 353 | 3.2 | 6.4 | 0.00 | 0.00 | 0.00 | 45 | 1018.5 |
| 20260902183558 | 23 | 22 | 0.0 | 3.2 | 0.00 | 0.00 | 0.00 | 46 | 1018.5 |
| 20260902183058 | 23 | 352 | 0.0 | 3.2 | 0.00 | 0.00 | 0.00 | 46 | 1018.3 |
| 20260902182558 | 23 | 16 | 0.0 | 3.2 | 0.00 | 0.00 | 0.00 | 45 | 1018.3 |
| 20260902182058 | 23 | 44 | 1.6 | 3.2 | 0.00 | 0.00 | 0.00 | 45 | 1018.5 |
| 20260902181558 | 23 | 100 | 1.6 | 3.2 | 0.00 | 0.00 | 0.00 | 44 | 1018.4 |
| 20260902181058 | 23 | 38 | 0.0 | 3.2 | 0.00 | 0.00 | 0.00 | 45 | 1018.4 |
| 20260902180558 | 23 | 0 | 0.0 | 3.2 | 0.00 | 0.00 | 0.00 | 44 | 1018.2 |
| 20260902180111 | 23 | 315 | 0.0 | 4.8 | 0.00 | 0.00 | 0.00 | 44 | 1018.1 |
| 20260902175558 | 23 | 276 | 0.0 | 4.8 | 0.00 | 0.00 | 0.00 | 44 | 1017.8 |
| 20260902175058 | 24 | 12 | 0.0 | 3.2 | 0.00 | 0.00 | 0.00 | 44 | 1018.1 |
| 20260902174559 | 24 | 6 | 0.0 | 1.6 | 0.00 | 0.00 | 0.00 | 43 | 1017.9 |
| 20260902174058 | 24 | 310 | 0.0 | 1.6 | 0.00 | 0.00 | 0.00 | 43 | 1018.1 |
| 20260902173558 | 25 | 322 | 0.0 | 3.2 | 0.00 | 0.00 | 0.00 | 43 | 1017.8 |
| 20260902173058 | 25 | 311 | 0.0 | 3.2 | 0.00 | 0.00 | 0.00 | 43 | 1017.9 |
| 20260902172558 | 25 | 333 | 0.0 | 1.6 | 0.00 | 0.00 | 0.00 | 43 | 1017.7 |
| 20260902172058 | 25 | 75 | 0.0 | 1.6 | 0.00 | 0.00 | 0.00 | 41 | 1017.7 |
| 20260902171558 | 25 | 68 | 0.0 | 3.2 | 0.00 | 0.00 | 0.00 | 40 | 1017.6 |
| 20260902171058 | 26 | 128 | 0.0 | 3.2 | 0.00 | 0.00 | 0.00 | 40 | 1017.9 |
| 20260902170558 | 26 | 235 | 0.0 | 3.2 | 0.00 | 0.00 | 0.00 | 40 | 1017.8 |
| 20260902170111 | 26 | 246 | 0.0 | 3.2 | 0.00 | 0.00 | 0.00 | 39 | 1017.7 |
| 20260902165558 | 26 | 192 | 0.0 | 4.8 | 0.00 | 0.00 | 0.00 | 39 | 1017.9 |
| 20260902164559 | 26 | 128 | 0.0 | 6.4 | 0.00 | 0.00 | 0.00 | 38 | 1017.8 |
| 20260902163558 | 27 | 117 | 3.2 | 4.8 | 0.00 | 0.00 | 0.00 | 36 | 1017.6 |
| 20260902163058 | 28 | 202 | 0.0 | 4.8 | 0.00 | 0.00 | 0.00 | 35 | 1017.9 |
| 20260902162559 | 27 | 255 | 0.0 | 4.8 | 0.00 | 0.00 | 0.00 | 36 | 1017.8 |
| 20260902162058 | 28 | 119 | 3.2 | 9.7 | 0.00 | 0.00 | 0.00 | 35 | 1018.2 |
| 20260902161559 | 27 | 35 | 3.2 | 9.7 | 0.00 | 0.00 | 0.00 | 38 | 1017.9 |
| 20260902161058 | 27 | 178 | 3.2 | 6.4 | 0.00 | 0.00 | 0.00 | 36 | 1018.1 |